www.pogodaiklimat.ru

Погода и климат >> Архив погоды >> Иран >> Месджеде-Солейман


ПОГОДА в Месджеде-Солеймане

  • Прогноз погоды в Месджеде-Солеймане
  • Монитор погоды в Месджеде-Солеймане

АРХИВ ПОГОДЫ в Месджеде-Солеймане

Время (UTC), дата Ветер
(напр.,м/с)
 
Видим.   Явления Облачность Т
(С)
Тd
(С)
f
(%)
Тe
(С)
Тes
(С)
Комфортность P
(гПа)
Po
(гПа)
Тmin
(С)
Tmax
(С)
R
(мм)
R24
(мм)
S
(см)
12 12.01 С 1 10 км 8/0
[Cs]
+14.5 +11.0 80 +15 +17 1017.8 979.6
15 12.01 З 2 10 км 4/0
[Ci fib]
+10.8 +9.0 89 +9 +9 1019.0 980.5 +15.2
18 12.01 СЗ 1 10 км 4/0
[Ci sp]
+9.1 +8.5 96 +8 +8 1018.7 980.3
21 12.01 СЗ 2 6000 м дымка 5/0
[Ac trans]
+8.3 +8.3 100 +6 +6 1018.9 980.7
00 13.01 В 2 6000 м дымка 8/3 1200 м
[Sc Ac trans]
+9.9 +9.1 95 +8 +8 1017.5 979.6
03 13.01 С 3 10 км 9/5 1200 м
[Sc As op]
+10.1 +8.8 92 +8 +8 1019.0 980.8 +8.1
06 13.01 З 1 10 км 10/4 1200 м
[Sc Ac As]
+11.2 +9.5 89 +11 +12 1019.0 980.7
09 13.01 Ю 3 8000 м дымка {дождь} 10/5 1050 м
[Cb cap As op]
+12.8 +11.2 90 +11 +12 1015.6 977.6
12 13.01 С 2 6000 м слаб. дождь 10/6 1050 м
[Cb cap As op]
+13.5 +8.7 73 +13 +13 1018.9 980.8 0.3
15 13.01 В 7 6000 м слаб. дождь 10/5 1050 м
[Cb cap As op]
+14.3 +8.5 68 +12 +12 1016.2 978.4 +16.1
18 13.01 ЮВ 3 7000 м слаб. дождь 10/8 1050 м
[Cb cap As op]
+14.3 +10.8 79 +13 +13 1016.5 978.7 2
21 13.01 штиль 0 7000 м слаб. дождь 10/8 1050 м
[Cb calv As op]
+13.3 +11.3 88 +13 +13 1015.0 977.3
00 14.01 ЮВ 2 7000 м слаб. дождь 10/8 1050 м
[Cb calv As op]
+14.7 +10.6 76 +14 +14 1013.8 976.2 1
03 14.01 З 1 5000 м слаб. дождь 10/8 1050 м
[Cb calv As op]
+12.1 +11.8 98 +12 +12 1016.2 978.5 +11.9
06 14.01 В 4 5000 м слаб. дождь 10/8 1050 м
[Cb calv As op]
+12.3 +9.9 85 +10 +10 1015.8 978.1 5
09 14.01 ЮВ 7 6000 м слаб. дождь 10/8 1050 м
[Cb calv As op]
+13.7 +10.6 82 +11 +11 1013.5 975.9
12 14.01 ЮВ 5 6000 м слаб. дождь 10/8 1050 м
[Cb calv As op]
+14.8 +11.3 80 +13 +13 1011.9 974.5 5
15 14.01 СЗ 2 4000 м дождь 10/8 900 м
[Cb cap As op]
+12.4 +12.4 100 +11 +11 1016.1 978.3 +16.2
18 14.01 ЮВ 2 4000 м дымка {ливн. осадки, дождь} 10/5 1050 м
[Cb cap As op]
+13.6 +12.6 94 +13 +13 1016.6 978.8 14
21 14.01 ЮВ 3 5000 м дымка 10/4 1200 м
[Sc Ac As]
+14.5 +13.7 95 +14 +14 1016.2 978.7
00 15.01 ЮВ 4 5000 м дымка {дождь} 10/4 1200 м
[Sc As op]
+14.7 +13.9 95 +13 +13 1016.1 978.6 1
03 15.01 ЮВ 4 5000 м дымка {дождь} 10/4 1200 м
[Sc As op]
+14.7 +13.9 95 +13 +13 1016.1 978.6 1
06 15.01 ЮВ 2 6000 м дымка 10/6 1050 м
[Cb calv Ac As]
+15.2 +13.4 89 +15 +15 1018.9 981.3
09 15.01 ЮВ 2 10 км 10/5 1200 м
[Sc diur, vesp Ac As]
+16.9 +14.3 85 +17 +18 1018.1 980.7
12 15.01 В 2 10 км 4/4 1200 м
[Sc diur, vesp]
+18.9 +15.2 79 +21 +22 комфорт 1017.3 980.1
15 15.01 ЮВ 1 10 км 9/5 1200 м
[Sc Ac As]
+17.2 +14.9 86 +18 +18 1017.4 980.1 +19.1
18 15.01 ЮЗ 1 10 км 5/4 1200 м
[Sc Ac As]
+15.5 +14.8 96 +16 +16 1018.0 980.6
21 15.01 С 1 10 км 5/4 1200 м
[Sc Ac As]
+14.6 +13.6 94 +15 +15 1017.1 979.7
00 16.01 С 1 10 км 6/4 1200 м
[Sc Ac As]
+14.1 +13.7 97 +14 +14 1016.6 979.3
03 16.01 З 1 10 км 5/4 1200 м
[Sc Ac As]
+13.4 +13.4 100 +13 +13 1015.5 978.1 +13.4
06 16.01 ЮВ 2 10 км 9/5 1200 м
[Sc Ac As]
+14.9 +12.9 88 +15 +15 1016.1 978.7
09 16.01 ЮВ 2 6000 м слаб. дождь 10/6 1050 м
[Cb cap Ac As]
+15.8 +15.5 98 +16 +17 1014.4 977.1
12 16.01 ЮВ 2 6000 м дымка {ливн. осадки, дождь} 10/8 1050 м
[Cb cap Ac As]
+16.8 +15.7 93 +17 +17 1011.7 974.6 5
15 16.01 ЮВ 1 7000 м дымка 10/5 1050 м
[Cb cap Ac As]
+16.9 +15.5 91 +18 +18 1010.9 973.7 +17.5
18 16.01 ЮВ 2 7000 м дымка 10/6 1050 м
[Cb calv Ac As]
+17.5 +15.5 88 +18 +18 1011.3 974.2
21 16.01 ЮВ 3 7000 м дымка {дождь} 10/8 1050 м
[Cb calv Ac As]
+18.1 +14.8 81 +18 +18 1010.1 973.1
00 17.01 Ю 1 7000 м дымка 9/5 1200 м
[Sc Ac As]
+16.1 +14.2 88 +17 +17 1008.7 971.7 0.8
03 17.01 ЮВ 2 6000 м дымка 10/8 1050 м
[Sc Ac As]
+16.5 +14.3 87 +17 +17 1005.8 969.0 +15.1
06 17.01 ЮЗ 4 3000 м сильн. ливневой дождь 10/8 900 м
[Cb cap As op]
+14.9 +14.9 100 +14 +14 1006.0 969.2 8
09 17.01 С 5 5000 м дымка {ливн. осадки} 9/5 1050 м
[Cb calv As trans]
+10.7 +8.3 85 +8 +9 1010.0 972.7
12 17.01 Ю 2 4000 м пыль {ливн. осадки} 6/6 1050 м
[Cb calv]
+11.1 +6.8 75 +10 +11 1013.6 976.0 7
15 17.01 СВ 1 4000 м дымка 4/4 1200 м
[Sc]
+9.4 +6.8 84 +9 +9 1015.2 977.5 +17.4
18 17.01 СЗ 1 3000 м дымка ясно +8.4 +7.1 92 +8 +8 1017.8 979.8
21 17.01 ЮВ 2 2000 м дымка 4/4 1200 м
[Sc]
+8.2 +6.9 92 +6 +6 1018.5 980.2
00 18.01 ЮВ 1 2000 м дымка ясно +7.1 +6.7 97 +6 +6 1019.0 980.6
03 18.01 Ю 1 2000 м дымка ясно +6.0 +6.0 100 +5 +5 1019.2 980.6 +6.0
06 18.01 ЮВ 2 1000 м пыль 4/4 1200 м
[Sc]
+8.2 +7.6 96 +6 +8 1020.6 982.1
09 18.01 ЮВ 1 2000 м пыль 4/4 1200 м
[Sc]
+13.0 +6.3 64 +13 +19 1019.2 981.0
12 18.01 З 4 3000 м пыль 5/5 1200 м
[Sc]
+13.1 +6.3 63 +12 +12 1017.9 979.7
15 18.01 З 2 3000 м пыль 5/5 1200 м
[Sc]
+10.4 +8.3 87 +9 +9 1018.8 980.3 +14.0
18 18.01 З 3 500 м пыль ясно +8.7 +7.7 93 +6 +6 1019.0 980.6
21 18.01 З 2 800 м пыль ясно +7.6 +2.8 72 +6 +6 1019.2 981.0
00 19.01 ЮВ 2 1000 м пыль ясно +5.5 +3.3 86 +3 +3 1019.6 981.1
03 19.01 штиль 0 1000 м пыль ясно +4.0 +2.9 93 +3 +3 1020.7 981.9 +4.0
06 19.01 С 1 10 км ясно +7.7 +3.3 74 +7 +12 1022.1 983.5
09 19.01 Ю 3 10 км ясно +10.4 -0.8 46 +9 +16 1021.2 982.7

 

Местоположение метеостанции Месджеде-Солейман (Иран): широта 31.98 долгота 49.27 высота над уровнем моря 320 м.

В архиве по умолчанию представлена погода в Месджеде-Солеймане за последнюю неделю. Архивные данные за месяц целиком и за предыдущие месяцы, начиная с января 2011 года, Вы можете получить, выбрав интересующий диапазон дат из раскрывающегося списка и нажав кнопку "Ввод!".


*Определитесь, кто Вы:
робот инопланетянин человек

Внимание! Время в таблицах - всемирное. Для получения местного времени необходимо прибавить поправку, которая равна 3.5 ч.

Смотрите также архив погоды в соседних городах и на ближайших метеорологических станциях:

Погода в Сафиабаде (Иран) (86 км)
Погода в Ахвазе (Иран) (92 км)
Погода в Омидийе (Иран) (140 км)
Погода в Шехре-Корде (Иран) (153 км)
Погода в Элигудерзе (Иран) (163 км)
Погода в Хорремабаде (Иран) (187 км)
Погода в Амаре (Ирак) (199 км)
Погода в Абадане (Иран) (204 км)
Погода в Басре (Ирак) (211 км)
Погода в Басре аэропорт (Ирак) (216 км)

Пояснения к столбцам:

Ветер - указаны скорость ветра в м/с - средняя за 10 мин, порывы в срок и между сроками (в фигурных скобках) и направление, откуда дует ветер: С - северный, СВ - северо-восточный, В - восточный, ЮВ - юго-восточный, Ю - южный, ЮЗ - юго-западный, З - западный, СЗ - северо-западный.
Видимость - горизонтальная дальность видимости в метрах или километрах. При видимости от 1 до 10 км при отсутствии осадков обычно наблюдается дымка, при ухудшении видимости до 1 км и менее - туман. В сухую погоду видимость может ухудшаться дымом, пылью или мглою.
Явления - указаны атмосферные явления, наблюдавшиеся в срок или в последний час перед сроком; фигурными скобками обозначены явления, наблюдавшиеся между сроками (за 1-3 часа до срока); квадратными скобками обозначены град или гололедные отложения с указанием их диаметра в мм.
Облачность - указаны через наклонную черту общая и нижняя облачность в баллах и высота нижней границы облаков в метрах; квадратными скобками обозначены формы облаков: Ci - перистые, Cs - перисто-слоистые, Cc - перисто-кучевые, Ac - высококучевые, As - высокослоистые, Sc - слоисто-кучевые, Ns - слоисто-дождевые, Cu - кучевые, Cb - кучево-дождевые. Подробнее классификацию облаков см. в Атласе облаков (PDF).
T - Температура воздуха - температура, измеренная на высоте 2 м над землей.
Td - Температура точки росы - температура, при понижении до которой содержащийся в воздухе водяной пар достигнет насыщения.
f - Относительная влажность воздуха - влажноcть воздуха, измеренная на высоте 2 м над землей.
Te - Эффективная температура - температура, которую ощущает одетый по сезону человек в тени. Характеристика душности погоды. При расчете учитывается влияние влажности воздуха и скорости ветра на теплоощущения человека.
Tes - Эффективная температура на солнце - температура, которую ощущает человек, с поправкой на солнечный нагрев. Характеристика знойности погоды. Зависит от высоты солнца над горизонтом, облачности и скорости ветра. Ночью, в пасмурную погоду, а также при ветре 12 м/с и более поправка равна нулю.
P - Атмосферное давление - приведенное к уровню моря атмосферное давление.
Po - Атмосферное давление - измеренное на уровне метеостанции атмосферное давление.
Tmin - Минимальная температура - минимум температуры воздуха на высоте 2 м над землей.
Tmax - Максимальная температура - максимум температуры воздуха на высоте 2 м над землей.
R - Количество осадков - Количество выпавших осадков за период времени, мм. При наведении курсора мыши на число - период времени, за который выпало указанное количество осадков.
R24 - Количество осадков - Количество выпавших осадков за 24 часа, мм.
S - Снежный покров - Высота снежного покрова, см. При наведении курсора мыши на число - состояние снежного покрова и степень покрытия местности в баллах.